Gulkana, AK

1:12 PM AKDT on May 29, 2017 (GMT -0800)
Gulkana

Weather History for PAGK - September, 2014

Change the Weather History Date:

Saturday, September 6, 2014

  Actual Average Record
Temperature  
Mean Temperature 45 °F -  
Max Temperature 48 °F 57 °F 68 °F (1986)
Min Temperature 42 °F 36 °F 19 °F (1996)
Degree Days  
Heating Degree Days 20    
Moisture  
Dew Point 41 °F    
Average Humidity 89    
Maximum Humidity 100    
Minimum Humidity 64    
Precipitation  
Precipitation 0.08 in - - ()
Sea Level Pressure  
Sea Level Pressure 29.93 in    
Wind  
Wind Speed 6 mph (North)    
Max Wind Speed 15 mph    
Max Gust Speed 22 mph    
Visibility 9 miles    
Events Rain    
Averages and records for this station are not official NWS values.
T = Trace of Precipitation, MM = Missing Value Source: NWS Daily Summary

Daily Weather History Graph

Daily Weather History Graph

Search for Another Location

Airport or City:

Trip Planner

Search our weather history database for the weather conditions in past years. The results will help you decide how hot, cold, wet, or windy it might be!

Date:

Astronomy

Sep. 06, 2014 Rise Set
Actual Time 6:44 AM AKDT 8:34 PM AKDT
Civil Twilight 5:57 AM AKDT 9:21 PM AKDT
Nautical Twilight 4:55 AM AKDT 10:21 PM AKDT
Astronomical Twilight 3:35 AM AKDT 11:39 PM AKDT
Moon 7:21 PM AKDT (9/6) 3:20 AM AKDT (9/6)
Length of Visible Light 15h 24m
Length of Day
13h 49m
Waxing Gibbous, 92% of the Moon is Illuminated
Sep 6
Waxing Gibbous
Sep 8
Full
Sep 15
Last Quarter
Sep 23
New
Oct 1
First Quarter

Hourly Weather History & Observations

Time (AKDT) Temp. Windchill Dew Point Humidity Pressure Visibility Wind Dir Wind Speed Gust Speed Precip Events Conditions
12:02 AM 44.1 °F 42.5 °F 43.0 °F 96% 29.89 in 9.0 mi NNW 3.5 mph - N/A   Overcast
12:53 AM 44.1 °F 42.5 °F 42.1 °F 93% 29.93 in 6.0 mi NNW 3.5 mph - N/A   Overcast
1:33 AM 43.0 °F 40.3 °F 42.1 °F 97% 29.90 in 8.0 mi NNW 4.6 mph - N/A   Overcast
1:53 AM 43.0 °F 41.3 °F 42.1 °F 97% 29.94 in 10.0 mi NNW 3.5 mph - N/A   Overcast
2:07 AM 43.0 °F 41.3 °F 42.1 °F 97% 29.89 in 10.0 mi NW 3.5 mph - N/A   Overcast
2:53 AM 43.0 °F 41.3 °F 42.1 °F 97% 29.93 in 10.0 mi North 3.5 mph - N/A   Overcast
3:51 AM 42.8 °F 41.1 °F 42.8 °F 100% 29.88 in 10.0 mi North 3.5 mph - N/A   Overcast
3:53 AM 43.0 °F 40.3 °F 42.1 °F 97% 29.93 in 10.0 mi North 4.6 mph - N/A   Overcast
4:53 AM 43.0 °F 41.3 °F 41.0 °F 93% 29.93 in 8.0 mi NW 3.5 mph - N/A   Overcast
5:13 AM 42.1 °F 40.2 °F 41.0 °F 96% 29.89 in 10.0 mi NNW 3.5 mph - N/A   Overcast
5:43 AM 42.1 °F 40.2 °F 41.0 °F 96% 29.89 in 2.5 mi NNW 3.5 mph - N/A   Overcast
5:51 AM 42.8 °F 40.1 °F 41.0 °F 93% 29.89 in 3.0 mi NNW 4.6 mph - N/A   Overcast
5:53 AM 42.1 °F 39.2 °F 41.0 °F 96% 29.93 in 3.0 mi NNW 4.6 mph - N/A   Overcast
6:53 AM 42.1 °F 40.2 °F 41.0 °F 96% 29.93 in 7.0 mi NNW 3.5 mph - 0.00 in Rain Light Rain
7:53 AM 42.1 °F 38.4 °F 41.0 °F 96% 29.93 in 5.0 mi NNW 5.8 mph - 0.01 in Rain Light Rain
8:28 AM 42.1 °F 39.2 °F 41.0 °F 96% 29.89 in 4.0 mi North 4.6 mph - 0.01 in Rain Light Rain
8:50 AM 42.8 °F 40.1 °F 41.0 °F 93% 29.90 in 6.0 mi NNW 4.6 mph - 0.03 in Rain Light Rain
8:53 AM 42.1 °F 37.7 °F 41.0 °F 96% 29.94 in 7.0 mi NNW 6.9 mph - 0.03 in Rain Light Rain
9:09 AM 42.1 °F 37.7 °F 41.0 °F 96% 29.90 in 6.0 mi North 6.9 mph - 0.00 in Rain Light Rain
9:53 AM 43.0 °F 38.2 °F 41.0 °F 93% 29.94 in 9.0 mi North 8.1 mph - 0.04 in Rain Light Rain
10:02 AM 43.0 °F 38.2 °F 41.0 °F 93% 29.90 in 10.0 mi North 8.1 mph - 0.00 in Rain Light Rain
10:11 AM 43.0 °F 38.8 °F 41.0 °F 93% 29.90 in 10.0 mi North 6.9 mph - 0.00 in Rain Light Rain
10:20 AM 43.0 °F 38.2 °F 41.0 °F 93% 29.90 in 10.0 mi North 8.1 mph - 0.00 in Rain Light Rain
10:51 AM 44.6 °F 40.2 °F 42.8 °F 93% 29.90 in 10.0 mi North 8.1 mph - 0.01 in Rain Light Rain
10:53 AM 44.1 °F 40.1 °F 41.0 °F 89% 29.95 in 10.0 mi North 6.9 mph - 0.01 in Rain Light Rain
11:53 AM 44.1 °F 40.1 °F 42.1 °F 93% 29.96 in 10.0 mi NNW 6.9 mph - 0.00 in Rain Light Rain
12:53 PM 45.0 °F 41.8 °F 42.1 °F 90% 29.96 in 10.0 mi North 5.8 mph - 0.01 in   Overcast
1:28 PM 46.0 °F 41.9 °F 43.0 °F 89% 29.92 in 10.0 mi North 8.1 mph - N/A   Overcast
1:53 PM 46.0 °F 43.1 °F 43.0 °F 89% 29.96 in 10.0 mi North 5.8 mph - N/A   Overcast
2:53 PM 46.9 °F - 42.1 °F 83% 29.96 in 10.0 mi North 8.1 mph - N/A   Overcast
3:25 PM 46.9 °F - 42.1 °F 83% 29.92 in 10.0 mi North 8.1 mph - N/A   Overcast
3:53 PM 46.9 °F - 42.1 °F 83% 29.96 in 10.0 mi North 10.4 mph - N/A   Mostly Cloudy
4:53 PM 46.9 °F - 41.0 °F 80% 29.95 in 10.0 mi North 6.9 mph - N/A   Mostly Cloudy
5:53 PM 46.9 °F - 39.9 °F 77% 29.94 in 10.0 mi North 8.1 mph - N/A   Overcast
6:53 PM 46.0 °F 41.4 °F 39.9 °F 79% 29.94 in 10.0 mi North 9.2 mph - 0.00 in   Overcast
7:53 PM 44.1 °F 39.5 °F 39.0 °F 82% 29.94 in 10.0 mi North 8.1 mph - N/A   Overcast
8:53 PM 44.1 °F 39.0 °F 37.0 °F 76% 29.95 in 10.0 mi North 9.2 mph - N/A   Overcast
9:53 PM 44.1 °F 38.1 °F 36.0 °F 73% 29.96 in 10.0 mi North 11.5 mph - N/A   Overcast
10:53 PM 44.1 °F 37.1 °F 35.1 °F 71% 29.96 in 10.0 mi North 15.0 mph 21.9 mph N/A   Overcast
11:53 PM 43.0 °F 37.7 °F 35.1 °F 74% 29.98 in 10.0 mi NNW 9.2 mph - N/A   Overcast